Ahoskie, NC

11:40 PM EST on November 19, 2019 (GMT -0500)
Tri County

Weather History for KASJ - September, 2019

Change the Weather History Date:

Monday, September 16, 2019

  Actual Average (WUND) Record (WUND)
Temperature  
Mean Temperature 76 °F -  
Max Temperature 85 °F - - (-1)
Min Temperature 66 °F - - (-1)
Cooling Degree Days 10    
Growing Degree Days 26 (Base 50)    
Moisture  
Dew Point 69 °F    
Average Humidity 86    
Maximum Humidity 100    
Minimum Humidity 50    
Precipitation  
Precipitation 0.00 in - - ()
Sea Level Pressure  
Sea Level Pressure 30.04 in    
Wind  
Wind Speed 1 mph (NNE)    
Max Wind Speed 7 mph    
Max Gust Speed -    
Visibility 6 miles    
Events Fog    
Averages and records for this station are not official NWS values.
T = Trace of Precipitation, MM = Missing Value Source: NWS Daily Summary

Daily Weather History Graph

Daily Weather History Graph

Search for Another Location

Airport or City:

Astronomy

Sep. 16, 2019 Rise Set
Actual Time 6:51 AM EDT 7:14 PM EDT
Civil Twilight 6:25 AM EDT 7:40 PM EDT
Nautical Twilight 5:55 AM EDT 8:10 PM EDT
Astronomical Twilight 5:24 AM EDT 8:41 PM EDT
Moon 8:52 PM EDT (9/16) 8:54 AM EDT (9/16)
Length of Visible Light 13h 14m
Length of Day
12h 23m
Waning Gibbous, 94% of the Moon is Illuminated
Sep 16
Waning Gibbous
Sep 21
Last Quarter
Sep 28
New
Oct 5
First Quarter
Oct 13
Full

Hourly Weather History & Observations

Time (EDT) Temp. Heat Index Dew Point Humidity Pressure Visibility Wind Dir Wind Speed Gust Speed Precip Events Conditions
12:35 AM 69.8 °F - 69.8 °F 100% 30.09 in 10.0 mi Calm Calm - N/A   Scattered Clouds
12:55 AM 69.1 °F - 69.1 °F 100% 30.09 in 10.0 mi Calm Calm - N/A   Scattered Clouds
1:15 AM 68.7 °F - 68.7 °F 100% 30.09 in 1.0 mi Calm Calm - N/A   Mist
1:35 AM 68.7 °F - 68.7 °F 100% 30.09 in 10.0 mi Calm Calm - N/A   Clear
1:55 AM 68.4 °F - 68.4 °F 100% 30.09 in 10.0 mi Calm Calm - N/A   Clear
2:15 AM 67.8 °F - 67.8 °F 100% 30.09 in 7.0 mi Calm Calm - N/A   Clear
2:35 AM 67.5 °F - 67.5 °F 100% 30.07 in 5.0 mi Calm Calm - N/A   Scattered Clouds
2:55 AM 67.6 °F - 67.6 °F 100% 30.06 in 1.5 mi Calm Calm - N/A   Overcast
3:15 AM 67.5 °F - 67.5 °F 100% 30.06 in 0.5 mi Calm Calm - N/A Fog Fog
3:35 AM 67.6 °F - 67.6 °F 100% 30.06 in 0.8 mi Calm Calm - N/A   Overcast
3:55 AM 68.2 °F - 68.2 °F 100% 30.06 in 0.2 mi Calm Calm - N/A Fog Fog
4:15 AM 68.5 °F - 68.5 °F 100% 30.06 in 0.2 mi Calm Calm - N/A Fog Fog
4:35 AM 68.0 °F - 68.0 °F 100% 30.06 in 0.2 mi Calm Calm - N/A Fog Fog
4:55 AM 68.2 °F - 68.2 °F 100% 30.06 in 0.2 mi Calm Calm - N/A   Drizzle
5:15 AM 68.0 °F - 68.0 °F 100% 30.06 in 0.2 mi Calm Calm - N/A Fog Fog
5:35 AM 67.5 °F - 67.5 °F 100% 30.06 in 0.5 mi Calm Calm - N/A Fog Fog
5:55 AM 67.1 °F - 67.1 °F 100% 30.06 in 0.5 mi Calm Calm - N/A Fog Fog
6:15 AM 66.9 °F - 66.9 °F 100% 30.07 in 5.0 mi Calm Calm - N/A   Overcast
6:35 AM 67.3 °F - 67.3 °F 100% 30.07 in 0.5 mi Calm Calm - N/A Fog Fog
6:55 AM 67.3 °F - 67.3 °F 100% 30.07 in 0.2 mi Calm Calm - N/A Fog Fog
7:15 AM 67.1 °F - 67.1 °F 100% 30.07 in 0.2 mi Calm Calm - N/A Fog Fog
7:35 AM 67.1 °F - 67.1 °F 100% 30.07 in 0.2 mi Calm Calm - N/A Fog Fog
7:55 AM 67.5 °F - 67.5 °F 100% 30.08 in 0.5 mi Calm Calm - N/A Fog Fog
8:15 AM 67.8 °F - 67.8 °F 100% 30.08 in 1.0 mi Calm Calm - N/A   Overcast
8:35 AM 68.2 °F - 68.2 °F 100% 30.09 in 0.2 mi Calm Calm - N/A Fog Fog
8:55 AM 68.9 °F - 68.9 °F 100% 30.09 in 1.5 mi Calm Calm - N/A   Overcast
9:15 AM 70.3 °F - 70.3 °F 100% 30.09 in 10.0 mi North 3.5 mph - N/A   Mostly Cloudy
9:35 AM 70.5 °F - 70.5 °F 100% 30.09 in 10.0 mi NNE 3.5 mph - N/A   Scattered Clouds
9:55 AM 72.5 °F - 70.7 °F 94% 30.09 in 10.0 mi Calm Calm - N/A   Clear
10:15 AM 74.1 °F - 69.4 °F 85% 30.09 in 10.0 mi North 3.5 mph - N/A   Clear
10:35 AM 76.5 °F - 70.9 °F 83% 30.08 in 10.0 mi NNW 3.5 mph - N/A   Clear
10:55 AM 78.1 °F - 70.3 °F 77% 30.08 in 10.0 mi North 4.6 mph - N/A   Clear
11:15 AM 79.3 °F - 70.2 °F 73% 30.08 in 10.0 mi NNE 6.9 mph - N/A   Clear
11:35 AM 79.9 °F - 70.2 °F 72% 30.07 in 10.0 mi North 6.9 mph - N/A   Scattered Clouds
11:55 AM 80.1 °F 83.4 °F 70.5 °F 73% 30.07 in 10.0 mi NNE 4.6 mph - N/A   Scattered Clouds
12:15 PM 80.8 °F 84.2 °F 70.0 °F 70% 30.06 in 10.0 mi East 5.8 mph - N/A   Mostly Cloudy
12:35 PM 81.0 °F 83.9 °F 68.7 °F 66% 30.05 in 10.0 mi ENE 3.5 mph - N/A   Scattered Clouds
12:55 PM 82.2 °F 86.0 °F 69.6 °F 66% 30.05 in 10.0 mi NNE 4.6 mph - N/A   Scattered Clouds
1:15 PM 81.7 °F 84.9 °F 68.9 °F 65% 30.05 in 10.0 mi NNE 5.8 mph - N/A   Scattered Clouds
1:35 PM 83.7 °F 87.5 °F 69.4 °F 62% 30.04 in 10.0 mi Calm Calm - N/A   Scattered Clouds
1:55 PM 81.9 °F 85.0 °F 68.5 °F 64% 30.03 in 10.0 mi NE 3.5 mph - N/A   Mostly Cloudy
2:15 PM 83.8 °F 87.0 °F 68.4 °F 59% 30.02 in 10.0 mi East 4.6 mph - N/A   Scattered Clouds
2:35 PM 83.1 °F 86.1 °F 67.8 °F 60% 30.01 in 10.0 mi NNE 5.8 mph - N/A   Scattered Clouds
2:55 PM 84.2 °F 87.1 °F 67.3 °F 57% 30.00 in 10.0 mi Calm Calm - N/A   Clear
3:15 PM 84.9 °F 87.4 °F 66.4 °F 54% 30.00 in 10.0 mi North 5.8 mph - N/A   Clear
3:35 PM 85.1 °F 87.7 °F 66.9 °F 54% 29.98 in 10.0 mi North 3.5 mph - N/A   Scattered Clouds
3:55 PM 84.2 °F 86.3 °F 65.8 °F 54% 29.98 in 10.0 mi NE 3.5 mph - N/A   Scattered Clouds
4:15 PM 84.4 °F 86.1 °F 64.9 °F 52% 29.98 in 10.0 mi Calm Calm - N/A   Scattered Clouds
4:35 PM 84.7 °F 86.1 °F 64.2 °F 50% 29.97 in 10.0 mi NE 5.8 mph - N/A   Clear
4:55 PM 85.1 °F 87.1 °F 65.7 °F 52% 29.96 in 10.0 mi North 3.5 mph - N/A   Clear
5:15 PM 84.9 °F 86.8 °F 65.5 °F 52% 29.96 in 10.0 mi North 3.5 mph - N/A   Clear
5:35 PM 84.7 °F 87.1 °F 66.6 °F 54% 29.96 in 10.0 mi NE 3.5 mph - N/A   Clear
5:55 PM 84.2 °F 86.6 °F 66.6 °F 55% 29.96 in 10.0 mi Calm Calm - N/A   Clear
6:15 PM 83.3 °F 85.7 °F 66.7 °F 57% 29.96 in 10.0 mi Calm Calm - N/A   Clear
6:35 PM 81.3 °F 85.2 °F 70.7 °F 70% 29.96 in 10.0 mi Calm Calm - N/A   Clear
7:15 PM 76.1 °F - 73.2 °F 91% 29.97 in 10.0 mi Calm Calm - N/A   Clear
7:55 PM 73.4 °F - 72.1 °F 96% 29.98 in 10.0 mi Calm Calm - N/A   Clear
8:15 PM 71.8 °F - 71.8 °F 100% 29.98 in 10.0 mi Calm Calm - N/A   Clear
8:35 PM 71.8 °F - 71.8 °F 100% 29.98 in 10.0 mi SE 3.5 mph - N/A   Clear
8:55 PM 72.5 °F - 72.5 °F 100% 29.98 in 10.0 mi Calm Calm - N/A   Clear
9:15 PM 71.8 °F - 71.8 °F 100% 29.99 in 10.0 mi Calm Calm - N/A   Clear
9:35 PM 71.2 °F - 71.2 °F 100% 29.99 in 10.0 mi Calm Calm - N/A   Clear
10:15 PM 70.0 °F - 70.0 °F 100% 29.99 in 5.0 mi Calm Calm - N/A   Clear
10:35 PM 69.8 °F - 69.8 °F 100% 29.99 in 3.0 mi Calm Calm - N/A   Clear
10:55 PM 68.5 °F - 68.5 °F 100% 29.99 in 0.5 mi Calm Calm - N/A Fog Fog
11:15 PM 68.0 °F - 68.0 °F 100% 29.98 in 4.0 mi Calm Calm - N/A   Clear
11:35 PM 68.2 °F - 68.2 °F 100% 29.98 in 1.2 mi Calm Calm - N/A   Mist
11:55 PM 67.1 °F - 67.1 °F 100% 29.98 in 0.2 mi Calm Calm - N/A Fog Fog